Liberia, Costa Rica

12:47 AM CST on June 26, 2017 (GMT -0600)
Daniel Oduber Quiros International

Weather History for MRLB - August, 2013

Change the Weather History Date:

Tuesday, August 13, 2013

  Actual Average Record
Temperature  
Mean Temperature 81 °F -  
Max Temperature 90 °F 86 °F 96 °F (2014)
Min Temperature 72 °F 74 °F 71 °F (2014)
Cooling Degree Days 16    
Growing Degree Days 31 (Base 50)    
Moisture  
Dew Point 74 °F    
Average Humidity 83    
Maximum Humidity 94    
Minimum Humidity 62    
Precipitation  
Precipitation 0.24 in - - ()
Sea Level Pressure  
Sea Level Pressure 29.83 in    
Wind  
Wind Speed 5 mph ()    
Max Wind Speed 8 mph    
Max Gust Speed -    
Visibility 7.2 miles    
Events Fog , Rain    
Averages and records for this station are not official NWS values.
T = Trace of Precipitation, MM = Missing Value Source: Averaged Metar Reports

Daily Weather History Graph

Daily Weather History Graph

Search for Another Location

Airport or City:

Trip Planner

Search our weather history database for the weather conditions in past years. The results will help you decide how hot, cold, wet, or windy it might be!

Date:

Astronomy

Aug. 13, 2013 Rise Set
Actual Time 5:32 AM CST 6:01 PM CST
Civil Twilight 5:10 AM CST 6:23 PM CST
Nautical Twilight 4:45 AM CST 6:48 PM CST
Astronomical Twilight 4:19 AM CST 7:14 PM CST
Moon 11:02 AM CST (8/13) 11:02 PM CST (8/13)
Length of Visible Light 13h 12m
Length of Day
12h 29m
Waxing Crescent, 42% of the Moon is Illuminated
Aug 13
Waxing Crescent
Aug 14
First Quarter
Aug 20
Full
Aug 28
Last Quarter
Sep 5
New

Hourly Weather History & Observations

Time (CST) Temp. Heat Index Dew Point Humidity Pressure Visibility Wind Dir Wind Speed Gust Speed Precip Events Conditions
6:00 AM 76 °F - 74 °F 90% 29.89 in 12 mi East 4.6 mph - - Rain Light Rain
6:00 AM 75.2 °F - 73.4 °F 94% 29.88 in 6.2 mi East 4.6 mph - N/A Rain Light Rain
7:00 AM 77.0 °F - 73.4 °F 89% 29.84 in 6.2 mi NE 3.5 mph - N/A   Mostly Cloudy
8:00 AM 80.6 °F 86.2 °F 75.2 °F 84% 29.85 in 6.2 mi East 4.6 mph - N/A   Mostly Cloudy
9:00 AM 83 °F - 74 °F 69% 29.87 in 12 mi SSE 5.8 mph - -   Partly Cloudy
9:00 AM 82.4 °F 89.5 °F 75.2 °F 79% 29.86 in 6.2 mi SSE 5.8 mph - N/A   Scattered Clouds
10:00 AM 84.2 °F 92.3 °F 75.2 °F 74% 29.86 in 6.2 mi South 6.9 mph - N/A   Mostly Cloudy
11:00 AM 86.0 °F 95.1 °F 75.2 °F 70% 29.85 in 6.2 mi South 6.9 mph - N/A   Scattered Clouds
12:00 PM 86.0 °F 93.4 °F 73.4 °F 66% 29.83 in 6.2 mi SSE 6.9 mph - N/A   Mostly Cloudy
1:00 PM 87.8 °F 95.6 °F 73.4 °F 62% 29.81 in 6.2 mi South 5.8 mph - N/A   Mostly Cloudy
2:00 PM 86.0 °F 96.9 °F 77.0 °F 74% 29.77 in 6.2 mi West 6.9 mph - N/A   Mostly Cloudy
2:07 PM 78.8 °F - 75.2 °F 89% 29.77 in 6.2 mi West 5.8 mph - N/A Rain Rain
3:00 PM 80 °F - 75 °F 82% 29.82 in 9 mi NW 6.9 mph - - Rain Light Rain
3:00 PM 78.8 °F - 75.2 °F 89% 29.78 in 6.2 mi NW 6.9 mph - N/A Rain Light Rain
4:00 PM 75.2 °F - 73.4 °F 94% 29.78 in 6.2 mi North 8.1 mph - N/A   Mostly Cloudy
5:00 PM 75.2 °F - 71.6 °F 89% 29.79 in 6.2 mi East 5.8 mph - N/A   Mostly Cloudy
6:00 PM 76 °F - 73 °F 88% 29.81 in 12 mi NE 5.8 mph - -   Overcast
6:00 PM 75.2 °F - 73.4 °F 94% 29.80 in 6.2 mi NE 5.8 mph - N/A   Mostly Cloudy
7:00 PM 77.0 °F - 73.4 °F 89% 29.82 in 6.2 mi NNE 4.6 mph - N/A Fog Patches of Fog
8:00 PM 77.0 °F - 73.4 °F 89% 29.83 in 6.2 mi NE 3.5 mph - N/A   Scattered Clouds